Orbital Elements at Epoch 2459200.5 (2020-Dec-17.0) TDB
Reference: JPL 19 (heliocentric ecliptic J2000)
Element | Value | Uncertainty (1-sigma) | Units |
e | .1525099031543528 | 5.7135e-08 | |
a | 2.80996874613295 | 2.4519e-08 | au |
q | 2.381420684793455 | 1.6527e-07 | au |
i | 8.798908956024269 | 6.4919e-06 | deg |
node | 47.50714234201278 | 2.9416e-05 | deg |
peri | 130.5801451752592 | 3.5489e-05 | deg |
M | 252.6107528087651 | 2.3884e-05 | deg |
tp | 2459713.726364795821 (2022-May-14.22636480) | 0.00011869 | TDB |
period | 1720.484090902313 4.71 | 2.2519e-05 6.165e-08 | d yr |
n | .2092434343936286 | 2.7387e-09 | deg/d |
Q | 3.238516807472444 | 2.8259e-08 | au |
|
| | Orbit Determination Parameters
Additional Information
|